Location: DaVinci Observatory
(43.1080°N, 78.6453°W)
Time: 01:23:45
(UTC-04:00)

OTV 5 (USA 277) - Pass Details

Date: 19 June 2019
Orbit: 299 x 335 km, 54.5° (Epoch: 13 July)

Event Time Altitude Azimuth Distance (km) Brightness Sun altitude
Rises 02:36:56 0° 306° (NW) 2,106 ? -20.9°
Enters shadow 03:45:53 -56° 278° (W) 10,926 ? -15.1°
Maximum altitude 04:16:05 13° 19° (NNE) 1,072 ? -11.6°
